[[{"header":{"parameterUnit":"m.s-1","parameterCategory":1,"la1":30.2991,"la2":30.254,"lo1":-89.0895,"lo2":-89.0444,"dy":0.0017,"dx":0.0017,"nx":28,"ny":28,"refTime":"2025-07-19T03:00:00:Z","depth":0,"parameterNumber":2,"parameterNumberName":"U-component_of_WINDS"},"data":[0,0,0,0,0,0,0,0,0,0,0,0,0,0,0,0,0,0,0,0,0,0,0,0,0,0,0,0,0,0,0,0,0,0,0,0,0,0,0,0,0,0,0,0,0,0,0,0,0,0,0,0,0,0,0,0,0,0,3.6567,3.6568,0,3.6671,3.6672,3.6673,3.6637,3.6634,3.6632,3.663,3.6735,3.674,3.6745,0,0,0,0,0,0,0,0,0,0,0,0,0,3.6334,3.6339,3.6567,3.6568,3.657,3.6671,3.6672,3.6673,3.6637,3.6634,3.6632,3.6629,3.6733,3.6739,3.6745,0,0,0,0,0,0,0,0,0,0,0,0,0,3.6436,3.634,3.6567,3.6564,3.6565,3.667,3.6672,3.6674,3.6638,3.6634,3.6631,3.6628,3.6731,3.6739,3.6746,3.6861,0,0,3.6769,3.6772,0,0,0,0,0,0,0,0,3.6431,3.6445,3.6563,3.6564,3.6565,3.6637,3.6628,3.6736,3.6639,3.661,3.663,3.6626,3.6705,3.6715,3.6741,3.6865,3.687,3.6769,3.6774,3.6777,3.6779,0,0,0,0,0,0,0,3.6424,3.644,3.6608,3.6565,3.6566,3.6556,3.6567,3.6649,3.6676,3.6612,3.661,3.6623,3.6705,3.6734,3.6744,3.6871,3.6769,3.6776,3.678,3.6783,3.7089,3.7093,0,0,0,0,0,0,3.6416,3.6435,3.6605,3.6611,3.6488,3.6563,3.6575,3.6618,3.6675,3.668,3.6625,3.662,3.6723,3.6735,3.6747,3.6881,3.6777,3.6784,3.6788,3.7086,3.709,3.7094,0,0,0,0,0,0,3.6412,3.6432,3.6601,3.6522,3.6543,3.6571,3.6619,3.6621,3.6651,3.6685,3.6689,3.6651,3.6721,3.6737,3.6831,3.6884,3.6787,3.6794,3.7081,3.7087,3.7092,3.7153,0,0,0,0,0,0,3.6405,3.643,3.6475,3.6524,3.6547,3.6684,3.6622,3.6626,3.6664,3.6658,3.6709,3.6715,3.672,3.6821,3.6839,3.6893,3.68,3.7077,3.7084,3.709,3.7146,3.7159,3.7171,0,0,0,0,0,3.6397,3.6489,3.6478,3.6499,3.6604,3.6688,3.6701,3.6705,3.6668,3.6712,3.6733,3.6713,3.6876,3.6831,3.6851,3.6908,3.7073,3.7082,3.709,3.714,3.7157,3.7171,0,0,0,0,0,0,3.6447,3.6496,3.6484,3.6594,3.6637,3.6681,3.6738,3.6724,3.6778,3.677,3.6773,3.6785,3.6881,3.6905,3.6853,3.7019,3.6969,3.6982,3.7,3.7016,3.7029,3.702,3.6806,0,0,0,0,0,3.6471,3.6535,3.6574,3.6668,3.669,3.671,3.6747,3.6746,3.679,3.6808,3.6837,3.688,3.694,3.698,3.7038,3.715,3.7158,3.7199,3.7211,3.7221,3.7231,3.7288,3.7305,3.7121,3.7121,3.7121,0,0,3.6521,3.6555,3.6596,3.6679,3.6712,3.6776,3.6726,3.6798,3.6845,3.6819,3.6909,3.6931,3.6979,3.7082,3.7128,3.7104,3.7284,3.7232,3.724,3.7244,3.7298,3.7315,3.7331,3.7127,3.7126,3.7125,0,0,3.6644,3.6679,3.6758,3.6792,3.6842,3.6854,3.6873,3.692,3.6933,3.7023,3.7004,3.706,3.7166,3.7199,3.723,3.7363,3.7344,3.7382,3.7447,3.7501,3.7516,3.7528,3.7572,3.7588,3.7392,3.7393,3.7393,0,3.67,3.6798,3.6801,3.6873,3.6909,3.6888,3.6967,3.6999,3.7066,3.709,3.7062,3.7191,3.7222,3.733,3.7362,3.7389,3.7408,3.7375,3.7514,3.7526,3.7538,3.758,3.7596,3.7396,3.7396,3.7396,3.7395,0,3.6861,3.6929,3.6988,3.7051,3.7093,3.7169,3.7182,3.7224,3.7219,3.7234,3.7324,3.736,3.7423,3.7449,3.7446,3.7556,3.7538,3.7513,3.7461,3.756,3.7598,3.7614,3.7402,3.7401,3.7399,3.7398,0,0,3.702,3.7082,3.7103,3.7129,3.7182,3.7234,3.7307,3.7368,3.7402,3.7449,3.7508,3.7596,3.7571,3.7606,3.7606,3.7655,3.7752,3.7622,3.7623,3.7642,3.787,3.7887,3.7905,3.7741,3.7744,3.7747,3.7864,0,3.7144,3.7273,3.7276,3.7393,3.7454,3.7433,3.7497,3.7534,3.755,3.7602,3.7619,3.7679,3.7644,3.7664,3.7712,3.773,3.7797,3.7722,3.7793,3.7796,3.7779,3.7926,3.7945,3.8055,3.788,3.7883,3.7885,0,3.7307,3.7356,3.7479,3.7519,3.7544,3.7601,3.7655,3.7707,3.7748,3.7755,3.7793,3.7785,3.7857,3.7805,3.7903,3.7852,3.7881,3.7894,3.7899,3.7903,3.7844,3.7931,3.809,3.8105,3.7909,3.7907,3.7906,0,3.7404,3.7502,3.7587,3.7611,3.7661,3.7701,3.7723,3.7761,3.7796,3.7844,3.7866,3.7921,3.7951,3.7993,3.7999,3.7962,3.8096,3.8046,3.8101,3.8101,3.8128,3.8126,3.8291,3.8153,3.8153,3.8153,3.8152,0,3.7541,3.7616,3.7631,3.7683,3.7765,3.7768,3.7848,3.7868,3.7901,3.7955,3.7942,3.7992,3.7999,3.805,3.8056,3.8133,3.8148,3.8154,3.8154,3.8153,3.8152,3.817,3.8161,3.8157,3.8156,3.8155,3.8154,0,3.7664,3.7677,3.7767,3.7806,3.7818,3.7876,3.7909,3.7957,3.797,3.8038,3.8054,3.8074,3.8134,3.8144,3.8216,3.8219,3.831,3.8304,3.8296,3.8294,3.8347,3.834,3.8527,3.855,3.8401,3.8402,3.8403,0,3.7748,3.7805,3.7849,3.7884,3.7908,3.7965,3.8,3.8005,3.8041,3.8091,3.8132,3.819,3.8237,3.8332,3.8353,3.8406,3.8399,3.846,3.8406,3.8402,3.8395,3.839,3.8393,3.847,3.8471,3.8473,3.8474,0,3.7896,3.7899,3.795,3.8003,3.8045,3.8087,3.8127,3.8156,3.8165,3.8207,3.8267,3.8303,3.8374,3.843,3.8482,3.8504,3.8489,3.8491,3.8505,3.8504,3.8495,3.8496,3.832,3.8486,3.8485,3.8484,3.8483,3.8483,3.7999,3.8047,3.8084,3.8141,3.8171,3.8207,3.8253,3.8271,3.8322,3.8379,3.8379,3.8444,3.8481,3.8549,3.8574,3.8623,3.8604,3.8626,3.8631,3.8636,3.8639,3.849,3.8634,3.8633,3.8633,3.8633,3.8632,0,3.8142,3.8165,3.8217,3.8272,3.8315,3.8299,3.8341,3.8378,3.8435,3.8471,3.8516,3.8583,3.8637,3.8661,3.8713,3.8748,3.8742,3.8761,3.8757,3.8761,3.8656,3.8636,3.8765,3.8765,3.8765,3.8765,3.8765,3.8765,3.8222,3.83,3.8307,3.8399,3.8421,3.8484,3.8509,3.8541,3.8569,3.8645,3.8689,3.8704,3.8734,3.8788,3.8836,3.8841,3.8859,3.8881,3.8883,3.8783,3.877,3.8757,3.8737,3.8886,3.8886,3.8983,3.8984,3.8985]},{"header":{"parameterUnit":"m.s-1","parameterCategory":1,"la1":30.2991,"la2":30.254,"lo1":-89.0895,"lo2":-89.0444,"dy":0.0017,"dx":0.0017,"nx":28,"ny":28,"refTime":"2025-07-19T03:00:00:Z","depth":0,"parameterNumber":3,"parameterNumberName":"V-component_of_WINDS"},"data":[0,0,0,0,0,0,0,0,0,0,0,0,0,0,0,0,0,0,0,0,0,0,0,0,0,0,0,0,0,0,0,0,0,0,0,0,0,0,0,0,0,0,0,0,0,0,0,0,0,0,0,0,0,0,0,0,0,0,2.4548,2.4548,0,2.4593,2.4593,2.4594,2.4557,2.4556,2.4554,2.4553,2.4598,2.4601,2.4603,0,0,0,0,0,0,0,0,0,0,0,0,0,2.4427,2.443,2.4548,2.4548,2.4549,2.4593,2.4593,2.4594,2.4558,2.4556,2.4554,2.4552,2.4597,2.46,2.4603,0,0,0,0,0,0,0,0,0,0,0,0,0,2.4477,2.4431,2.4548,2.4536,2.4535,2.4593,2.4593,2.4594,2.4558,2.4556,2.4553,2.4551,2.4596,2.46,2.4604,2.4675,0,0,2.4616,2.4618,0,0,0,0,0,0,0,0,2.4474,2.4481,2.4537,2.4537,2.4536,2.4567,2.4567,2.4621,2.4559,2.4549,2.4553,2.455,2.459,2.4594,2.4607,2.4677,2.4679,2.4616,2.4619,2.462,2.4622,0,0,0,0,0,0,0,2.4471,2.4479,2.4565,2.4538,2.4537,2.4528,2.4532,2.4577,2.4582,2.455,2.4548,2.4553,2.4589,2.4604,2.4608,2.4679,2.4616,2.462,2.4622,2.4624,2.4806,2.4809,0,0,0,0,0,0,2.4469,2.4476,2.4564,2.4567,2.4499,2.4532,2.4537,2.456,2.4581,2.4582,2.4555,2.4552,2.4598,2.4604,2.461,2.4692,2.462,2.4624,2.4626,2.4804,2.4807,2.4809,0,0,0,0,0,0,2.4466,2.4477,2.4562,2.4521,2.4531,2.4536,2.4562,2.4562,2.4576,2.4585,2.4586,2.457,2.4596,2.4604,2.4658,2.4693,2.4626,2.463,2.4801,2.4805,2.4808,2.4859,0,0,0,0,0,0,2.4463,2.4476,2.4504,2.4522,2.4533,2.4611,2.4564,2.4564,2.4583,2.4579,2.4599,2.46,2.4595,2.4653,2.4662,2.4698,2.4633,2.4798,2.4803,2.4807,2.4854,2.4864,2.4873,0,0,0,0,0,2.4459,2.4517,2.4506,2.4516,2.4568,2.4613,2.462,2.4613,2.4587,2.4614,2.4619,2.4599,2.4688,2.4658,2.4669,2.4706,2.4795,2.4801,2.4807,2.485,2.4862,2.4872,0,0,0,0,0,0,2.4503,2.4519,2.4507,2.4572,2.4592,2.4607,2.4641,2.4626,2.4654,2.4648,2.4638,2.4643,2.47,2.4708,2.4675,2.4774,2.4737,2.4745,2.4767,2.4778,2.4787,2.4784,2.4636,0,0,0,0,0,2.4521,2.4556,2.4568,2.4625,2.4635,2.4637,2.4656,2.4649,2.4668,2.4676,2.4686,2.4705,2.4737,2.4758,2.4788,2.4855,2.4858,2.4886,2.4895,2.4902,2.4909,2.4943,2.4955,2.4828,2.4828,2.4827,0,0,2.4557,2.457,2.4593,2.4634,2.4648,2.4684,2.4644,2.4684,2.471,2.4682,2.4734,2.4741,2.4762,2.4822,2.4849,2.4831,2.4945,2.4909,2.4915,2.4918,2.495,2.4962,2.4973,2.4831,2.4831,2.483,0,0,2.4641,2.4656,2.4704,2.4718,2.474,2.474,2.4752,2.4769,2.4772,2.4824,2.4803,2.4833,2.4889,2.4904,2.4919,2.5007,2.4989,2.5017,2.5064,2.5098,2.5108,2.5116,2.5146,2.5157,2.5024,2.5024,2.5024,0,2.4684,2.4738,2.473,2.4772,2.4789,2.4765,2.4813,2.4827,2.4857,2.487,2.4849,2.4917,2.4929,2.4991,2.5013,2.5026,2.5038,2.5014,2.5107,2.5116,2.5124,2.5152,2.5164,2.5027,2.5026,2.5026,2.5026,0,2.4788,2.4826,2.4862,2.4892,2.4913,2.4958,2.4955,2.4978,2.4969,2.4971,2.5022,2.5036,2.5067,2.5081,2.5073,2.5142,2.513,2.5108,2.5071,2.5139,2.5166,2.5177,2.5031,2.503,2.5029,2.5028,0,0,2.4904,2.4926,2.494,2.4952,2.4973,2.5001,2.5044,2.5074,2.5093,2.5115,2.5149,2.5195,2.5175,2.5192,2.5184,2.5214,2.528,2.5188,2.5188,2.5204,2.5356,2.5371,2.5384,2.5269,2.5271,2.5273,2.5353,0,2.4988,2.5062,2.5055,2.5125,2.5159,2.5135,2.5172,2.5188,2.5191,2.5219,2.5221,2.5254,2.5225,2.5235,2.5263,2.5267,2.5311,2.5261,2.53,2.5301,2.5295,2.5398,2.5416,2.5492,2.5364,2.5366,2.5367,0,2.5097,2.5121,2.5195,2.5209,2.5222,2.5256,2.5282,2.531,2.5327,2.5326,2.5344,2.5331,2.5372,2.5334,2.539,2.5356,2.5371,2.5375,2.5378,2.5381,2.5338,2.5403,2.5516,2.5527,2.5383,2.5382,2.5381,0,2.5172,2.5223,2.5273,2.5284,2.5302,2.5326,2.5334,2.5349,2.5367,2.539,2.5401,2.5428,2.5443,2.5464,2.5458,2.5431,2.5515,2.5476,2.5514,2.5515,2.5533,2.5532,2.5649,2.5544,2.5544,2.5544,2.5544,0,2.5267,2.5312,2.5306,2.5337,2.5387,2.5377,2.5426,2.5432,2.5445,2.5475,2.5456,2.5485,2.5476,2.5504,2.55,2.5545,2.5553,2.5552,2.5551,2.5554,2.5554,2.5564,2.5558,2.5547,2.5546,2.5546,2.5545,0,2.5359,2.5357,2.5409,2.5422,2.5426,2.5462,2.5471,2.55,2.55,2.5539,2.5547,2.5548,2.5579,2.5576,2.5611,2.5608,2.5665,2.5657,2.5659,2.5657,2.5695,2.5691,2.5822,2.5838,2.5724,2.5725,2.5726,0,2.5419,2.5453,2.5469,2.5488,2.5497,2.5529,2.5547,2.5538,2.5557,2.5578,2.5604,2.5634,2.5657,2.5708,2.5712,2.5738,2.573,2.5774,2.5734,2.5736,2.5729,2.5727,2.573,2.5782,2.5783,2.5784,2.5785,0,2.5526,2.5523,2.555,2.5576,2.5598,2.5618,2.5636,2.5653,2.5646,2.5668,2.57,2.5718,2.5754,2.5783,2.5808,2.5815,2.5799,2.5798,2.5808,2.5811,2.581,2.581,2.5679,2.5795,2.5794,2.5793,2.5793,2.5792,2.5603,2.5631,2.5646,2.5676,2.5689,2.5706,2.5732,2.5736,2.5762,2.5791,2.5784,2.582,2.5834,2.5865,2.5875,2.5902,2.5886,2.5901,2.5905,2.5908,2.5912,2.5806,2.5907,2.5906,2.5906,2.5906,2.5906,0,2.5707,2.5715,2.5743,2.5769,2.5792,2.5774,2.5793,2.5813,2.5845,2.586,2.5883,2.5919,2.5947,2.5951,2.5978,2.5998,2.5991,2.6005,2.6003,2.6005,2.5926,2.5914,2.6011,2.6011,2.601,2.601,2.601,2.601,2.5765,2.5811,2.581,2.5862,2.5869,2.5904,2.5916,2.5931,2.5943,2.5984,2.6007,2.6009,2.602,2.6046,2.607,2.6071,2.6081,2.6098,2.6096,2.6021,2.6011,2.6001,2.599,2.6101,2.6101,2.6172,2.6173,2.6174]}]]